Date,TemperatureHighF,TemperatureAvgF,TemperatureLowF,DewpointHighF,DewpointAvgF,DewpointLowF,HumidityHigh,HumidityAvg,HumidityLow,PressureMaxIn,PressureMinIn,WindSpeedMaxMPH,WindSpeedAvgMPH,GustSpeedMaxMPH,PrecipitationSumIn
2013-1-1,46.8,41.3,36.0,43.7,38.6,35.7,99,90,74,29.97,29.42,7,2,14,0.02
2013-1-2,50.7,45.4,41.5,50.4,44.7,39.4,99,97,87,30.23,29.96,8,3,13,0.00
2013-1-3,53.8,49.6,47.3,53.5,49.4,47.0,99,99,99,30.52,30.23,7,3,13,0.00
2013-1-4,53.6,48.4,45.1,50.0,47.7,44.9,99,98,85,30.57,30.51,5,1,12,0.00
2013-1-5,53.1,47.9,43.3,51.5,47.5,43.1,99,98,92,30.52,30.41,8,2,13,0.00
2013-1-6,49.5,46.8,43.2,49.2,46.5,42.9,99,99,99,30.45,30.29,5,1,10,0.00
2013-1-7,49.3,46.9,44.8,49.0,46.6,44.5,99,99,99,30.29,30.14,8,2,14,0.00
2013-1-8,51.4,48.8,44.6,51.2,48.6,44.3,99,99,99,30.15,30.10,6,2,11,0.06
2013-1-9,50.7,40.4,32.9,46.7,39.4,32.7,99,97,81,30.15,30.03,3,0,7,0.02
2013-1-10,36.7,33.7,30.7,36.4,33.4,30.5,99,99,99,30.03,29.87,4,0,8,0.01
2013-1-11,44.2,35.5,31.8,44.0,35.3,31.6,99,99,99,30.02,29.90,4,0,6,0.00
2013-1-12,39.6,35.4,31.6,38.2,33.7,29.6,99,94,81,29.98,29.81,8,3,15,0.00
2013-1-13,44.2,33.8,28.9,40.3,31.8,28.4,99,93,71,30.11,29.98,4,0,7,0.00
2013-1-14,41.2,33.4,30.7,39.3,33.1,30.5,99,99,89,30.04,29.60,8,2,14,0.27
2013-1-15,43.9,32.6,24.8,37.0,30.8,24.6,99,94,71,29.82,29.61,8,1,14,0.00
2013-1-16,27.9,25.7,22.6,27.6,25.5,22.4,99,99,99,29.97,29.78,2,0,4,0.00
2013-1-17,34.2,30.5,25.9,31.8,29.2,25.6,99,95,81,30.00,29.80,4,1,8,0.00
2013-1-18,32.0,28.8,26.2,31.8,28.4,26.0,99,98,90,29.79,29.40,9,4,14,0.00
2013-1-19,32.2,30.7,28.9,31.1,30.0,28.7,99,97,92,29.50,29.38,7,3,11,0.00
2013-1-20,32.2,30.8,29.8,31.9,30.3,28.8,99,98,92,29.47,29.24,7,2,13,0.00
2013-1-21,32.0,29.7,26.1,31.8,29.5,25.8,99,99,99,29.40,29.19,1,0,4,0.00
2013-1-22,33.1,30.4,23.9,32.8,30.0,23.7,99,98,88,29.69,29.40,5,1,11,0.00
2013-1-23,33.3,31.5,30.2,32.7,31.0,30.0,99,98,93,29.80,29.68,5,1,9,0.00
2013-1-24,35.8,32.4,30.6,34.1,29.8,26.6,99,91,74,30.08,29.80,3,0,5,0.01
2013-1-25,35.2,32.5,27.5,35.0,29.7,25.3,99,90,81,30.05,29.41,8,2,16,0.18
2013-1-26,45.3,40.1,33.8,44.3,39.1,33.5,99,96,81,29.72,29.34,9,3,20,0.26
2013-1-27,51.1,44.6,37.6,50.8,41.0,34.6,99,88,61,29.47,29.09,13,5,26,0.09
2013-1-28,50.4,41.7,32.9,48.5,40.4,32.7,99,95,78,29.67,29.28,14,4,27,0.11
2013-1-29,55.6,51.4,46.0,55.3,50.0,43.4,99,95,78,29.50,29.35,14,6,30,0.07
2013-1-30,53.1,47.5,41.7,50.6,42.3,33.9,99,83,51,29.91,29.38,14,5,27,0.09
2013-1-31,50.0,45.7,42.3,43.9,40.6,36.3,99,83,61,29.90,29.62,11,4,23,0.16
2013-2-1,47.7,41.9,38.5,43.4,40.2,37.5,99,94,74,29.72,29.38,6,2,13,0.07
2013-2-2,44.6,36.7,30.0,39.0,30.6,25.9,97,79,54,30.19,29.60,7,2,13,0.00
2013-2-3,47.3,37.9,29.8,47.0,36.8,28.8,99,96,91,30.18,29.79,8,3,15,0.00
2013-2-4,50.0,46.1,38.1,49.6,40.1,33.5,99,80,59,29.85,29.58,13,5,23,0.06
2013-2-5,41.7,37.5,33.3,41.5,34.2,29.0,99,88,63,29.60,29.22,14,4,25,0.14
2013-2-6,41.9,38.5,34.2,41.3,33.7,27.7,99,84,68,30.04,29.31,9,4,17,0.08
2013-2-7,41.5,35.5,31.3,37.0,33.3,27.5,99,92,77,30.06,29.92,5,2,13,0.03
2013-2-8,45.7,36.5,31.8,41.6,35.3,31.6,99,96,80,30.12,29.99,5,1,10,0.00
2013-2-9,38.3,35.8,32.7,38.0,35.6,32.5,99,99,97,30.11,29.77,3,1,7,0.14
2013-2-10,40.5,36.2,32.2,40.2,35.9,31.9,99,99,99,29.77,29.21,9,3,16,0.42
2013-2-11,34.7,32.9,32.0,34.3,32.5,31.8,99,99,97,29.77,29.25,6,2,11,0.05
2013-2-12,34.3,33.1,32.2,32.8,29.6,26.5,99,87,76,30.08,29.77,4,1,8,0.06
2013-2-13,36.9,32.8,31.5,36.6,30.9,26.5,99,93,80,30.10,29.79,7,2,14,0.10
2013-2-14,51.6,43.6,36.5,48.5,42.1,36.2,99,95,75,29.92,29.61,8,2,16,0.22
2013-2-15,52.0,41.6,33.8,44.4,38.7,33.5,99,90,69,30.14,29.92,4,1,10,0.00
2013-2-16,52.0,39.5,28.8,45.0,37.0,28.5,99,91,61,30.18,30.10,5,1,9,0.00
2013-2-17,50.9,38.8,27.7,42.7,35.5,27.4,99,90,55,30.14,30.03,6,1,11,0.00
2013-2-18,48.9,39.1,30.0,40.5,36.4,29.6,99,90,68,30.09,30.04,8,2,11,0.00
2013-2-19,59.9,38.9,25.0,45.3,33.2,24.7,99,83,41,30.10,29.98,5,0,8,0.00
2013-2-20,41.7,35.6,31.8,36.6,32.2,26.4,99,88,69,30.25,30.07,8,4,15,0.00
2013-2-21,36.1,32.9,31.3,26.9,23.3,19.8,80,68,58,30.24,30.16,10,5,18,0.00
2013-2-22,33.3,32.3,31.3,27.2,24.5,21.1,80,73,64,30.17,30.10,6,3,13,0.00
2013-2-23,36.3,33.0,30.9,32.1,28.7,25.3,99,84,69,30.20,30.09,5,2,8,0.00
2013-2-24,36.0,33.3,31.6,32.1,29.2,26.5,99,85,69,30.30,30.19,5,2,11,0.00
2013-2-25,38.7,36.6,32.7,38.2,35.9,30.5,99,97,87,30.41,30.27,8,3,14,0.00
2013-2-26,39.2,37.0,35.4,38.9,36.7,35.2,99,99,98,30.57,30.40,8,3,15,0.00
2013-2-27,48.6,38.3,34.5,39.1,35.5,33.7,99,91,67,30.58,30.47,7,2,16,0.00
2013-2-28,49.3,39.0,32.5,37.1,33.4,27.6,99,82,46,30.49,30.34,6,2,12,0.00
2013-3-1,44.6,41.0,37.2,41.6,36.9,31.6,99,86,65,30.39,30.34,8,2,13,0.01
2013-3-2,54.3,40.0,28.4,36.6,31.9,27.1,96,74,50,30.38,30.20,4,1,8,0.00
2013-3-3,53.1,39.0,26.1,39.4,33.5,25.8,99,82,58,30.23,30.06,7,2,14,0.00
2013-3-4,50.9,40.4,33.8,37.8,35.0,32.0,99,82,58,30.06,29.69,7,2,11,0.00
2013-3-5,64.0,43.7,27.0,47.7,38.1,26.7,99,83,53,29.69,29.51,4,0,8,0.00
2013-3-6,47.1,40.7,34.9,46.1,40.4,34.6,99,99,95,29.55,29.48,6,2,11,0.00
2013-3-7,46.8,43.1,40.1,46.5,42.8,39.8,99,99,99,29.49,29.31,5,2,10,0.26
2013-3-8,44.8,42.5,39.6,44.5,42.2,39.1,99,99,99,29.52,29.33,4,2,9,0.04
2013-3-9,44.6,39.0,34.9,44.3,38.8,34.6,99,99,99,29.66,29.50,5,2,11,0.06
2013-3-10,36.5,33.3,29.1,36.2,31.7,26.4,99,94,75,29.78,29.64,9,4,19,0.02
2013-3-11,36.3,29.0,25.9,30.5,23.8,18.7,99,81,55,29.84,29.76,14,6,26,0.01
2013-3-12,42.6,33.0,26.1,34.2,25.4,18.8,91,74,53,29.85,29.78,9,4,17,0.00
2013-3-13,47.1,37.5,29.7,31.6,28.9,22.9,98,73,40,29.93,29.75,6,2,13,0.00
2013-3-14,48.7,37.5,25.7,36.4,29.3,24.4,99,75,40,29.97,29.78,5,2,11,0.01
2013-3-15,46.0,41.5,36.7,44.3,40.8,35.6,99,97,83,29.78,29.35,11,4,19,0.15
2013-3-16,49.6,41.8,37.4,45.0,40.9,37.1,99,97,75,29.35,29.13,11,3,20,0.34
2013-3-17,45.3,35.9,28.8,43.3,35.1,28.5,99,97,83,29.20,29.10,5,1,9,0.05
2013-3-18,54.1,36.9,25.7,45.3,34.7,25.5,99,92,62,29.32,29.13,5,1,10,0.02
2013-3-19,47.7,38.0,33.3,41.8,36.2,33.0,99,94,72,29.48,29.31,5,1,10,0.03
2013-3-20,39.7,36.3,21.4,37.9,34.8,21.1,99,94,82,29.95,29.48,7,2,11,0.00
2013-3-21,43.0,36.4,29.1,34.4,32.0,28.9,99,85,62,29.97,29.84,12,4,20,0.01
2013-3-22,39.2,34.4,32.5,35.9,33.2,32.3,99,95,80,29.85,29.70,15,7,25,0.18
2013-3-23,32.7,31.7,29.7,32.5,31.4,29.4,99,99,99,29.89,29.74,9,3,16,0.00
2013-3-24,33.3,30.2,27.7,29.4,27.3,24.4,99,89,75,29.97,29.88,9,5,18,0.04
2013-3-25,37.6,32.6,30.2,28.0,25.8,24.0,85,76,65,29.99,29.94,13,6,23,0.03
2013-3-26,38.8,33.4,31.1,26.9,25.0,22.7,81,71,60,29.96,29.89,11,5,19,0.00
2013-3-27,39.6,33.3,30.6,30.4,26.1,21.9,90,75,58,29.90,29.83,8,3,13,0.00
2013-3-28,41.5,34.0,26.6,31.5,25.1,22.0,92,71,52,29.93,29.84,8,3,14,0.00
2013-3-29,41.7,34.4,27.7,28.4,24.9,21.2,86,68,54,29.89,29.76,8,2,15,0.00
2013-3-30,43.0,33.7,26.8,34.7,28.9,24.9,99,84,61,29.95,29.78,8,2,17,0.00
2013-3-31,42.3,34.1,22.1,31.0,25.6,9.7,98,73,51,29.95,29.85,29,2,29,0.76
2013-4-1,39.6,34.8,29.8,30.6,27.7,23.9,91,76,60,29.89,29.82,9,4,21,0.00
2013-4-2,50.0,37.0,26.8,33.0,24.9,18.9,95,65,38,30.08,29.89,8,3,16,0.00
2013-4-3,48.0,37.1,29.3,36.0,26.9,18.9,99,71,38,30.09,30.02,15,5,28,0.00
2013-4-4,43.7,36.6,32.9,32.5,28.0,21.6,96,73,44,30.03,29.94,13,5,24,0.00
2013-4-5,48.6,38.1,30.7,35.0,29.1,25.1,99,73,45,30.13,29.95,11,4,21,0.00
2013-4-6,57.0,40.9,29.5,34.7,29.4,25.2,94,67,36,30.22,30.13,5,1,11,0.00
2013-4-7,53.4,40.7,24.1,34.5,27.1,21.1,90,61,39,30.21,29.82,5,1,11,0.00
2013-4-8,52.7,40.0,32.7,34.5,31.1,26.0,98,72,45,29.83,29.52,9,4,17,0.00
2013-4-9,53.6,42.3,34.3,38.7,36.1,33.2,99,81,52,29.56,29.37,8,4,17,0.00
2013-4-10,53.8,44.5,35.8,41.7,37.0,33.7,94,76,55,29.63,29.41,6,2,12,0.00
2013-4-11,46.0,43.1,38.7,45.8,42.4,22.9,99,98,43,29.43,29.32,74,2,74,24.23
2013-4-12,57.7,47.4,42.4,49.6,44.7,40.6,99,91,66,29.66,29.22,7,1,12,0.04
2013-4-13,54.1,47.5,39.2,52.2,45.9,38.9,99,95,71,29.78,29.65,9,3,18,0.07
2013-4-14,65.3,56.2,51.6,55.8,52.8,50.7,99,90,63,29.80,29.69,15,7,30,0.04
2013-4-15,63.5,54.5,46.0,51.4,49.0,45.8,99,83,54,29.92,29.78,14,6,22,0.00
2013-4-16,62.4,53.9,46.9,50.4,45.7,39.4,99,76,49,29.98,29.72,13,5,24,0.04
2013-4-17,63.1,53.1,43.0,54.6,48.3,39.6,99,85,63,29.98,29.57,20,6,33,0.00
2013-4-18,56.7,50.1,45.7,49.3,41.7,36.2,99,73,52,29.93,29.58,16,7,27,0.05
2013-4-19,59.5,48.5,41.7,44.7,40.7,34.7,99,77,44,30.46,29.93,10,3,17,0.03
2013-4-20,63.3,48.9,30.7,44.0,34.3,28.7,99,63,32,30.48,30.28,6,1,11,0.00
2013-4-21,55.9,47.0,36.3,44.2,37.1,28.2,99,70,48,30.28,29.93,8,3,16,0.00
2013-4-22,57.9,49.3,40.6,52.1,45.7,40.4,99,88,63,29.94,29.80,10,3,19,0.00
2013-4-23,70.9,56.7,43.5,52.7,48.6,43.3,99,77,51,30.15,29.86,9,2,15,0.00
2013-4-24,65.1,54.7,45.7,57.7,52.2,44.9,99,92,76,30.19,30.09,7,2,14,0.00
2013-4-25,66.9,55.1,44.8,57.4,51.8,44.5,99,90,66,30.18,29.98,7,2,102,0.12
2013-4-26,57.2,46.9,39.0,45.3,38.8,26.6,99,77,33,30.04,29.84,9,3,17,0.01
2013-4-27,52.9,43.0,34.2,47.7,37.5,33.5,99,82,55,30.07,29.85,9,2,18,0.05
2013-4-28,56.3,45.5,33.8,46.1,38.8,32.7,99,80,52,30.06,29.75,13,4,21,0.02
2013-4-29,58.1,47.8,38.8,45.6,40.2,36.4,99,77,48,30.13,29.77,8,3,17,0.01
2013-4-30,58.3,47.2,37.2,43.4,38.1,29.9,99,73,46,30.27,30.13,7,2,13,0.00
2013-5-1,67.5,50.1,28.8,41.9,35.2,27.3,99,61,31,30.28,30.12,6,1,11,0.00
2013-5-2,71.2,54.6,39.6,43.6,38.9,27.1,95,59,34,30.19,30.09,5,1,10,0.00
2013-5-3,64.4,53.3,38.7,47.2,40.1,26.8,82,62,44,30.12,29.92,8,3,14,0.00
2013-5-4,63.9,53.4,46.4,55.3,46.5,39.8,99,80,46,30.05,29.84,9,4,17,0.19
2013-5-5,69.1,55.6,42.8,54.7,48.4,42.3,99,79,53,30.11,30.04,8,2,13,0.00
2013-5-6,74.1,58.9,40.1,52.8,46.9,39.8,99,68,41,30.11,29.96,7,1,12,0.00
2013-5-7,75.0,62.0,0.5,54.8,46.8,-11.6,95,60,37,30.00,29.78,8,2,14,1.42
2013-5-8,66.2,56.1,22.8,58.2,51.0,22.6,99,84,59,29.78,29.54,14,4,102,0.13
2013-5-9,56.5,48.9,42.6,50.1,45.3,39.3,99,88,55,29.70,29.43,18,7,30,0.07
2013-5-10,63.1,52.4,47.3,52.3,47.8,41.4,99,85,62,29.79,29.49,11,5,19,0.02
2013-5-11,57.9,47.4,41.5,55.4,44.5,39.5,99,90,65,29.81,29.65,11,4,23,0.14
2013-5-12,54.3,49.2,40.6,53.3,46.2,40.0,99,90,65,29.90,29.75,10,3,15,0.02
2013-5-13,58.3,50.5,41.7,51.3,42.5,36.0,99,75,47,29.79,29.68,9,4,21,0.02
2013-5-14,52.0,45.0,39.2,47.6,42.5,38.2,99,91,63,29.70,29.10,8,3,17,0.44
2013-5-15,57.4,46.9,41.7,48.3,42.5,38.5,99,86,53,29.48,28.96,114,4,114,50.75
2013-5-16,65.3,50.3,32.7,47.2,39.7,32.5,99,72,38,29.50,29.39,6,1,14,0.01
2013-5-17,57.2,50.3,44.4,48.9,45.6,42.0,99,85,66,29.77,29.50,7,2,11,0.00
2013-5-18,58.3,52.0,46.6,50.9,47.8,44.7,99,86,67,29.76,29.64,7,2,15,0.00
2013-5-19,71.6,57.8,43.2,54.1,50.0,42.9,99,78,51,29.87,29.73,6,1,11,0.00
2013-5-20,65.3,56.7,50.4,61.6,55.9,49.8,99,97,86,29.90,29.81,7,2,13,0.01
2013-5-21,59.9,53.8,50.2,56.3,52.5,48.0,99,95,85,30.04,29.89,6,2,11,0.00
2013-5-22,59.5,50.9,44.8,51.2,44.5,36.4,99,81,56,30.05,29.96,11,4,19,0.00
2013-5-23,54.7,45.7,41.0,43.3,38.7,34.0,96,77,49,29.97,29.82,12,4,21,0.01
2013-5-24,49.6,44.8,40.5,45.9,42.0,39.3,99,90,77,30.05,29.64,11,5,27,0.07
2013-5-25,67.5,53.0,37.8,46.6,41.1,37.2,99,69,35,30.13,30.05,6,1,11,0.00
2013-5-26,71.6,57.4,43.0,45.4,40.5,34.0,85,56,33,30.10,29.87,5,2,11,0.00
2013-5-27,64.4,53.1,41.9,47.4,42.1,36.7,98,68,44,29.87,29.53,14,5,24,0.00
2013-5-28,55.4,50.1,47.1,55.1,49.1,44.9,99,97,81,29.55,29.39,8,2,14,0.52
2013-5-29,59.2,51.9,46.6,58.3,51.6,46.3,99,99,94,29.74,29.49,6,2,11,0.20
2013-5-30,61.0,54.6,50.0,59.1,54.0,49.7,99,98,89,29.98,29.70,7,2,14,0.16
2013-5-31,75.0,61.4,51.1,60.0,54.6,48.1,99,81,52,30.11,29.98,7,2,13,0.00
2013-6-1,65.7,55.5,45.7,48.7,45.6,42.8,96,71,49,30.27,30.10,9,3,53,0.00
2013-6-2,69.4,56.7,43.9,49.4,45.5,42.2,99,70,42,30.40,30.27,8,2,14,0.00
2013-6-3,72.7,59.3,45.1,52.1,47.9,43.6,99,68,44,30.44,30.36,6,2,13,0.00
2013-6-4,70.5,58.6,44.2,52.0,46.7,40.3,92,66,46,30.40,30.20,8,3,14,0.00
2013-6-5,62.1,55.1,49.5,53.2,51.4,48.5,99,88,71,30.21,30.08,6,2,10,0.00
2013-6-6,70.7,56.2,47.3,55.2,50.0,45.6,99,82,56,30.19,30.10,8,3,13,0.00
2013-6-7,75.0,58.4,45.9,57.8,48.9,43.4,99,74,42,30.23,30.15,9,3,16,0.00
2013-6-8,66.0,55.4,47.7,52.3,49.8,47.4,99,83,60,30.22,30.06,8,3,13,0.00
2013-6-9,69.8,55.8,48.0,53.2,49.1,45.5,95,80,55,30.06,29.90,7,3,14,0.00
2013-6-10,60.3,53.3,47.7,48.7,46.8,45.3,93,79,62,29.97,29.87,5,1,10,0.00
2013-6-11,66.2,56.9,48.7,62.1,54.5,46.3,99,92,79,29.88,29.74,7,2,12,0.00
2013-6-12,67.1,59.6,55.0,61.4,57.7,54.8,99,94,69,29.76,29.63,12,4,20,0.22
2013-6-13,64.4,56.8,50.9,61.4,55.2,50.6,99,95,77,29.92,29.60,14,4,22,0.21
2013-6-14,64.6,55.3,46.4,61.8,52.0,46.1,99,90,61,29.94,29.64,9,3,16,0.47
2013-6-15,61.5,55.1,48.7,54.9,50.8,45.9,99,86,61,29.72,29.56,10,4,21,0.12
2013-6-16,64.6,57.8,50.7,54.4,52.1,48.4,99,82,64,29.91,29.71,9,3,13,0.00
2013-6-17,67.6,59.0,52.3,57.0,53.4,50.4,99,82,64,29.94,29.87,6,2,14,0.01
2013-6-18,78.1,62.6,52.2,65.8,58.8,50.2,99,88,62,29.95,29.84,7,2,12,0.00
2013-6-19,81.0,68.8,61.3,63.8,60.2,55.3,99,76,55,29.95,29.87,5,2,12,0.00
2013-6-20,73.0,62.9,54.9,66.6,60.6,53.3,99,93,77,29.94,29.70,6,1,11,0.23
2013-6-21,77.2,63.8,55.6,65.3,60.3,53.6,99,89,61,29.75,29.68,7,2,13,0.01
2013-6-22,63.9,57.2,52.2,60.5,54.5,51.3,99,91,75,29.73,29.49,14,5,27,0.10
2013-6-23,62.6,56.3,51.8,60.2,54.2,47.3,99,93,80,29.94,29.51,13,5,23,0.01
2013-6-24,65.1,56.0,50.5,50.3,47.1,43.9,87,73,54,30.25,29.94,8,3,16,0.00
2013-6-25,75.0,60.5,46.2,53.7,49.5,46.0,99,70,43,30.37,30.24,6,1,12,0.00
2013-6-26,73.2,62.3,53.8,57.8,52.9,48.6,91,73,54,30.38,30.33,7,2,14,0.00
2013-6-27,68.0,56.4,50.2,58.4,52.4,47.2,99,88,54,30.36,30.11,6,2,13,0.14
2013-6-28,68.2,60.4,54.7,67.9,60.1,54.2,99,99,96,30.11,29.97,10,2,16,0.08
2013-6-29,75.4,61.7,51.4,60.1,53.8,49.7,99,78,46,30.18,30.03,8,2,12,0.00
2013-6-30,77.0,64.5,56.1,66.9,59.4,55.2,99,85,57,30.17,29.96,9,3,17,0.00
2013-7-1,69.4,59.1,52.2,56.6,51.7,46.7,99,78,49,29.96,29.91,7,2,14,0.00
2013-7-2,62.2,56.5,49.1,58.5,54.0,48.8,99,92,75,29.93,29.52,9,3,19,0.00
2013-7-3,67.6,61.3,55.2,63.2,57.9,54.6,99,89,73,29.92,29.49,8,2,14,0.06
2013-7-4,77.7,64.2,53.4,65.8,58.7,53.1,99,84,55,30.20,29.90,8,3,14,0.00
2013-7-5,86.0,67.8,50.7,62.8,57.4,50.4,99,72,46,30.34,30.20,5,1,9,0.00
2013-7-6,85.1,71.2,57.7,63.8,60.5,57.3,99,72,48,30.37,30.28,5,1,11,0.00
2013-7-7,86.9,73.2,58.6,68.3,63.5,58.4,99,74,48,30.48,30.36,5,1,10,0.00
2013-7-8,81.1,68.9,58.5,65.8,61.9,56.8,99,80,57,30.51,30.42,6,2,14,0.00
2013-7-9,85.6,69.0,52.2,58.2,52.4,39.8,99,63,23,30.44,30.22,5,1,8,0.00
2013-7-10,72.1,64.8,55.0,64.4,57.4,45.9,99,78,53,30.28,30.24,6,2,11,0.00
2013-7-11,77.0,63.4,52.0,57.9,53.1,48.4,98,72,46,30.28,30.18,5,2,11,0.00
2013-7-12,87.8,68.4,51.6,67.0,59.6,51.3,99,77,44,30.24,30.14,5,1,8,0.00
2013-7-13,94.1,77.0,61.7,70.1,64.4,56.8,91,67,45,30.20,30.14,4,1,9,0.00
2013-7-14,84.6,72.5,61.0,65.2,61.3,54.9,99,72,37,30.20,30.11,6,2,11,0.00
2013-7-15,90.5,73.1,55.8,68.5,59.7,52.5,97,67,38,30.18,30.10,4,1,8,0.00
2013-7-16,88.5,73.5,57.4,67.3,61.8,57.1,99,70,41,30.18,30.09,4,1,8,0.00
2013-7-17,93.2,74.8,59.4,69.5,63.4,59.1,99,71,43,30.25,30.14,6,1,11,0.00
2013-7-18,89.2,74.4,61.2,67.3,61.9,58.1,92,68,43,30.28,30.21,7,2,11,0.00
2013-7-19,86.9,73.5,59.2,65.4,61.0,56.8,96,67,47,30.27,30.16,9,2,16,0.00
2013-7-20,74.3,66.9,61.0,65.4,63.4,60.7,99,89,70,30.23,30.14,8,3,14,0.00
2013-7-21,71.4,63.7,58.3,67.1,62.1,58.0,99,95,79,30.16,30.00,8,2,11,0.00
2013-7-22,92.8,73.3,59.2,74.0,66.0,58.9,99,81,51,30.03,29.83,5,2,9,0.04
2013-7-23,80.2,72.0,65.3,75.1,68.9,65.0,99,91,66,29.89,29.78,9,2,14,0.33
2013-7-24,82.0,71.2,62.2,66.1,62.7,59.7,99,77,50,29.88,29.80,6,2,10,0.00
2013-7-25,81.9,68.8,60.8,70.6,62.3,57.6,99,82,55,29.85,29.75,8,2,17,0.06
2013-7-26,84.4,70.4,56.3,63.0,58.0,53.5,99,68,41,29.84,29.76,5,1,11,0.00
2013-7-27,87.6,68.2,54.3,65.0,59.1,54.0,99,77,42,29.79,29.48,7,1,13,1.27
2013-7-28,77.0,65.9,57.6,65.1,60.8,57.3,99,85,58,29.65,29.48,12,4,18,0.09
2013-7-29,72.5,63.5,57.2,67.9,61.8,56.6,99,94,71,29.85,29.63,13,3,23,0.62
2013-7-30,75.7,65.0,56.7,66.1,60.9,56.4,99,87,64,29.86,29.75,7,2,12,0.01
2013-7-31,69.6,63.5,58.8,69.3,63.0,57.4,99,98,89,29.90,29.80,6,2,14,0.21
2013-8-1,91.4,75.4,61.2,75.6,68.3,60.9,99,81,51,29.82,29.55,8,3,14,0.00
2013-8-2,81.0,68.6,21.2,69.5,62.8,21.0,99,84,54,29.70,29.61,100,5,100,56.09
2013-8-3,77.5,65.2,56.1,63.0,59.1,55.6,99,83,53,29.97,29.69,9,4,16,0.01
2013-8-4,66.6,62.2,55.9,64.8,61.5,55.7,99,97,88,29.99,29.90,8,3,15,0.10
2013-8-5,75.6,62.7,54.9,67.7,61.3,54.6,99,96,67,29.90,29.67,10,3,21,0.40
2013-8-6,75.0,61.4,50.2,60.7,53.3,49.9,99,78,47,29.96,29.85,4,1,8,0.01
2013-8-7,76.5,64.2,53.2,63.9,55.6,51.6,99,76,50,29.99,29.87,5,1,12,0.00
2013-8-8,79.2,65.0,48.0,60.2,55.7,47.8,99,75,45,30.04,29.97,7,2,11,0.00
2013-8-9,72.9,63.7,58.5,63.9,58.0,52.3,99,83,60,30.13,29.91,9,2,14,0.03
2013-8-10,71.4,62.7,56.5,59.0,53.4,48.2,98,74,47,30.12,30.04,8,1,13,0.00
2013-8-11,72.0,62.4,55.4,61.4,55.1,50.0,99,79,50,30.04,29.92,6,2,13,0.00
2013-8-12,70.7,60.4,54.0,57.2,53.3,49.6,99,79,53,30.03,29.92,8,2,16,0.00
2013-8-13,66.6,58.1,50.4,63.5,55.8,50.1,99,92,70,30.15,30.03,6,2,13,0.06
2013-8-14,70.9,61.0,48.6,64.9,58.3,48.3,99,92,67,30.15,30.01,7,2,13,0.00
2013-8-15,78.3,68.0,60.8,69.7,64.8,60.5,99,90,70,30.02,29.87,8,4,16,0.01
2013-8-16,78.6,66.5,58.1,69.5,62.6,56.1,99,89,60,29.93,29.81,7,2,12,0.55
2013-8-17,70.3,61.0,54.1,63.9,59.5,53.9,99,95,78,29.92,29.57,11,4,21,0.00
2013-8-18,75.6,65.0,57.9,62.5,56.6,51.2,99,77,48,29.84,29.56,8,2,15,0.00
2013-8-19,69.6,61.0,52.3,57.6,53.5,51.6,99,78,55,30.24,29.83,7,1,13,0.00
2013-8-20,79.9,63.9,50.7,62.4,56.6,50.4,99,80,50,30.28,30.20,4,1,8,0.00
2013-8-21,76.8,64.3,52.7,65.0,59.8,52.4,99,87,62,30.23,30.06,7,2,12,0.00
2013-8-22,78.4,67.8,60.3,70.8,65.3,60.0,99,92,70,30.08,29.94,5,1,11,0.03
2013-8-23,78.4,68.7,58.1,68.1,63.9,57.8,99,86,64,29.99,29.80,5,1,12,0.00
2013-8-24,70.0,62.7,57.0,65.2,60.0,52.4,99,92,74,29.85,29.77,8,2,17,0.00
2013-8-25,76.3,63.4,54.9,68.6,61.2,52.6,99,93,71,30.03,29.82,7,3,14,0.00
2013-8-26,83.7,67.1,56.1,69.2,60.5,55.8,99,82,47,30.08,29.99,6,2,10,0.00
2013-8-27,78.4,64.0,53.2,63.9,58.5,53.0,99,85,51,30.09,29.99,4,1,9,0.00
2013-8-28,78.6,64.6,55.6,66.5,60.6,55.3,99,88,62,30.16,30.09,4,1,8,0.00
2013-8-29,76.8,63.6,52.7,63.5,59.7,52.4,99,88,62,30.12,30.04,5,1,12,0.00
2013-8-30,78.4,66.3,57.9,67.5,63.0,57.6,99,90,65,30.07,29.94,7,2,14,0.00
2013-8-31,69.8,59.0,48.9,64.5,49.5,44.6,99,73,46,30.35,30.05,7,2,14,0.00
2013-9-1,74.1,58.9,47.3,57.9,52.0,47.0,99,80,50,30.36,30.24,7,2,13,0.00
2013-9-2,77.9,63.7,50.9,65.6,59.2,50.6,99,87,64,30.29,30.21,7,2,14,0.00
2013-9-3,81.1,66.8,54.9,70.0,62.1,54.6,99,86,61,30.29,30.18,3,0,6,0.00
2013-9-4,84.2,68.3,51.3,67.4,59.8,51.0,99,77,46,30.20,29.91,8,1,13,0.00
2013-9-5,83.7,65.2,50.0,66.1,58.1,49.7,99,80,52,29.91,29.74,5,1,10,0.00
2013-9-6,59.5,54.8,49.1,59.1,54.2,48.8,99,98,93,29.77,29.67,5,1,11,0.26
2013-9-7,67.3,55.1,46.8,56.4,50.8,46.5,99,87,55,29.95,29.70,8,2,16,0.01
2013-9-8,64.6,53.7,45.5,53.9,48.8,45.2,99,85,54,29.97,29.92,6,1,12,0.01
2013-9-9,67.5,53.7,47.1,61.2,51.9,46.9,99,94,67,30.02,29.90,4,1,10,0.07
2013-9-10,63.0,55.0,48.4,54.6,51.2,48.1,99,88,70,30.13,30.02,8,3,14,0.00
2013-9-11,61.2,54.9,51.4,58.5,54.4,51.2,99,98,88,30.14,30.04,5,2,11,0.16
2013-9-12,73.9,61.5,54.3,66.0,59.2,54.0,99,93,68,30.04,29.95,4,1,9,0.04
2013-9-13,66.6,58.2,48.7,61.8,56.5,48.5,99,95,72,30.02,29.92,5,1,10,0.26
2013-9-14,63.1,52.4,45.9,58.2,50.7,45.6,99,94,76,30.02,29.87,4,1,8,0.01
2013-9-15,58.6,50.6,42.8,58.4,50.0,42.5,99,98,84,30.00,29.40,11,4,22,0.03
2013-9-16,59.2,50.7,43.9,47.8,45.1,43.3,99,82,60,29.52,29.46,13,4,22,0.01
2013-9-17,52.7,49.4,46.0,51.5,48.3,44.9,99,96,86,29.53,29.27,6,2,11,0.16
2013-9-18,59.7,52.9,48.4,56.2,49.4,47.3,99,89,65,29.78,29.35,9,2,17,0.00
2013-9-19,68.5,54.7,47.5,64.5,52.5,47.2,99,93,66,29.81,29.60,8,2,16,0.05
2013-9-20,68.9,57.1,49.8,55.6,52.3,49.6,99,85,59,30.12,29.79,9,2,15,0.00
2013-9-21,73.6,59.3,50.5,67.7,58.2,50.3,99,96,81,30.21,30.09,7,1,12,0.00
2013-9-22,75.2,64.3,55.8,67.9,61.6,55.5,99,92,72,30.29,30.21,4,1,9,0.01
2013-9-23,64.4,62.2,59.5,64.1,61.9,59.3,99,99,99,30.23,30.05,4,1,7,0.00
2013-9-24,69.4,60.3,53.1,65.7,59.7,52.8,99,98,85,30.05,29.86,4,0,8,0.00
2013-9-25,79.5,61.4,53.1,69.2,60.1,52.8,99,96,65,29.86,29.75,4,0,8,0.00
2013-9-26,66.6,58.5,53.6,59.3,54.2,52.4,99,86,65,30.00,29.86,7,2,12,0.00
2013-9-27,68.2,58.1,50.0,57.9,53.4,49.7,99,85,62,30.00,29.87,7,2,14,0.00
2013-9-28,70.7,57.9,47.5,59.3,52.4,45.6,99,84,59,29.87,29.69,7,2,14,0.00
2013-9-29,71.4,58.9,52.5,58.6,54.2,51.8,99,86,57,29.74,29.66,8,3,16,0.00
2013-9-30,65.3,58.9,51.8,60.0,56.1,51.3,99,91,76,29.74,29.64,8,3,16,0.00
2013-10-1,64.4,55.8,48.0,59.9,53.5,47.8,99,92,78,29.75,29.70,9,3,15,0.00
2013-10-2,66.4,59.9,55.8,65.6,59.4,55.0,99,99,93,29.78,29.69,8,3,17,0.02
2013-10-3,65.8,61.4,57.9,65.6,61.1,57.6,99,99,99,29.78,29.55,7,2,17,0.05
2013-10-4,66.2,61.6,55.9,65.9,61.3,55.7,99,99,99,29.86,29.52,8,2,15,0.13
2013-10-5,68.4,58.5,52.2,62.9,56.1,51.9,99,92,66,30.18,29.86,4,0,9,0.00
2013-10-6,70.7,58.5,48.6,60.5,55.2,48.3,99,90,65,30.21,30.16,7,1,12,0.00
2013-10-7,68.2,58.8,49.8,64.6,57.7,49.6,99,96,81,30.20,30.14,5,1,9,0.00
2013-10-8,73.6,60.9,54.5,67.0,58.7,54.2,99,93,67,30.19,30.12,6,2,12,0.00
2013-10-9,60.4,53.5,45.7,56.4,50.1,42.2,99,89,66,30.18,29.94,8,3,17,0.02
2013-10-10,56.1,47.5,41.4,44.1,41.0,37.4,93,79,62,30.14,29.97,8,3,18,0.00
2013-10-11,57.0,50.6,44.6,56.7,49.9,41.6,99,97,88,30.15,30.03,14,4,26,0.08
2013-10-12,58.1,52.5,47.3,57.8,52.2,47.0,99,99,99,30.14,29.96,8,3,21,0.88
2013-10-13,52.2,50.1,47.5,51.9,49.8,47.2,99,99,99,29.96,29.70,7,2,13,0.38
2013-10-14,51.1,47.7,45.1,50.8,47.4,44.9,99,99,99,29.71,29.61,7,2,15,0.33
2013-10-15,60.1,49.7,43.2,59.1,49.3,42.9,99,99,90,29.90,29.70,5,1,11,0.01
2013-10-16,60.8,49.0,39.6,59.8,48.4,39.3,99,98,87,29.91,29.53,8,2,17,0.39
2013-10-17,64.2,55.7,50.0,62.5,54.7,49.7,99,97,85,29.91,29.65,5,1,11,0.01
2013-10-18,59.7,54.3,47.3,59.4,54.0,47.0,99,99,99,29.93,29.66,6,2,60,6.07
2013-10-19,65.1,56.6,51.3,64.3,56.3,51.0,99,99,92,29.66,29.48,8,2,17,0.25
2013-10-20,62.1,55.2,-7.8,60.9,54.9,-7.2,99,99,95,29.59,29.48,9,2,58,0.10
2013-10-21,61.5,57.4,52.5,61.2,57.2,52.2,99,99,99,29.60,29.45,11,4,17,0.28
2013-10-22,63.0,59.6,55.8,62.7,59.3,55.5,99,99,99,29.45,29.18,8,3,20,0.35
2013-10-23,61.2,54.3,45.0,58.7,51.7,44.2,99,91,63,29.74,29.08,10,3,18,0.08
2013-10-24,64.8,52.5,41.7,58.8,51.1,41.5,99,95,79,29.89,29.73,6,1,11,0.00
2013-10-25,68.9,58.4,53.4,64.2,57.3,53.1,99,96,83,29.74,29.46,10,4,18,0.20
2013-10-26,60.8,58.7,57.0,59.4,57.0,54.1,99,94,84,29.53,29.39,11,5,17,0.00
2013-10-27,59.5,55.0,51.1,56.9,53.9,50.8,99,96,83,29.28,29.10,12,5,21,0.05
2013-10-28,56.1,49.2,44.6,53.2,48.7,44.3,99,98,83,29.45,28.77,9,3,21,0.67
2013-10-29,56.1,47.3,41.5,50.8,44.8,41.3,99,92,66,29.96,29.45,8,2,14,0.00
2013-10-30,59.2,49.0,38.8,53.7,47.1,38.6,99,94,72,30.05,29.90,10,3,17,0.06
2013-10-31,55.2,50.7,46.8,54.9,50.4,46.5,99,99,99,29.92,29.79,7,2,14,0.04
2013-11-1,55.9,51.4,47.5,55.7,51.1,47.2,99,99,99,29.79,29.50,7,1,13,0.43
2013-11-2,54.9,49.3,46.2,54.4,48.1,43.9,99,96,83,29.51,29.11,16,4,27,0.08
2013-11-3,54.1,46.2,41.9,46.2,43.0,41.2,99,89,65,29.42,29.08,11,3,22,0.07
2013-11-4,50.9,42.9,36.7,46.2,41.3,36.4,99,95,78,29.40,29.05,8,2,16,0.05
2013-11-5,51.6,45.0,38.1,51.2,44.0,37.9,99,96,79,29.38,29.11,10,3,19,0.07
2013-11-6,56.5,49.6,45.9,56.2,49.3,45.6,99,99,98,29.43,29.25,11,2,17,0.26
2013-11-7,52.7,46.4,41.9,49.4,45.5,41.6,99,97,79,29.66,29.41,7,2,12,0.01
2013-11-8,47.5,42.1,38.5,47.2,41.9,38.2,99,99,99,29.65,29.51,4,1,8,0.18
2013-11-9,47.3,40.4,35.8,47.0,40.1,35.5,99,99,97,29.64,29.51,5,1,8,0.01
2013-11-10,54.3,42.4,35.2,43.7,39.8,35.0,99,91,63,30.17,29.55,7,1,14,0.01
2013-11-11,55.9,50.1,39.0,55.7,49.8,38.8,99,99,98,30.14,29.99,9,2,14,0.16
2013-11-12,56.3,48.0,38.8,53.7,46.9,38.4,99,96,79,30.46,30.08,7,1,13,0.06
2013-11-13,52.0,42.5,33.6,47.8,41.6,33.4,99,97,83,30.47,30.06,8,2,14,0.00
2013-11-14,49.1,44.4,38.5,45.2,42.6,37.7,99,93,78,30.41,30.02,11,4,26,0.02
2013-11-15,48.6,42.3,36.3,47.5,40.6,34.8,99,94,77,30.49,30.40,4,1,9,0.00
2013-11-16,51.3,46.2,41.5,50.3,45.7,41.3,99,98,93,30.43,30.31,4,1,8,0.00
2013-11-17,51.4,47.4,39.0,51.2,47.1,38.8,99,99,99,30.32,29.95,3,0,6,0.00
2013-11-18,47.5,44.8,38.5,47.2,44.5,38.2,99,99,99,29.95,29.69,7,1,13,0.03
2013-11-19,45.7,36.5,29.8,40.4,34.4,29.6,99,93,67,30.02,29.75,7,1,14,0.03
2013-11-20,46.2,38.9,31.1,44.0,38.2,30.5,99,97,81,29.95,29.35,9,4,19,0.22
2013-11-21,48.7,41.6,36.1,44.8,40.6,35.9,99,96,80,29.93,29.40,8,3,17,0.04
2013-11-22,48.4,39.7,34.9,44.5,38.9,34.6,99,97,81,30.16,29.93,4,1,10,0.00
2013-11-23,47.3,37.5,31.3,42.0,36.3,31.0,99,96,77,30.30,30.15,4,1,9,0.00
2013-11-24,46.8,41.8,37.8,45.7,40.7,36.7,99,96,89,30.55,30.29,5,1,11,0.00
2013-11-25,43.9,39.2,34.0,40.6,38.0,33.7,99,96,86,30.68,30.55,4,1,7,0.00
2013-11-26,48.6,39.2,28.2,44.3,37.9,28.0,99,95,77,30.68,30.50,4,0,9,0.00
2013-11-27,54.0,49.2,44.8,53.0,48.8,44.3,99,99,94,30.50,30.42,5,2,13,0.00
2013-11-28,49.5,45.7,41.5,49.2,45.4,41.3,99,99,99,30.53,30.44,2,0,5,0.00
2013-11-29,49.8,45.6,42.1,48.5,44.4,41.6,99,95,84,30.45,30.12,11,4,27,0.00
2013-11-30,49.8,41.2,36.7,41.6,38.6,36.4,99,91,70,30.40,30.16,6,2,12,0.00
2013-12-1,56.5,44.3,37.0,50.7,43.1,36.8,99,96,75,30.53,30.35,4,1,11,0.00
2013-12-2,47.7,44.1,42.4,46.9,42.0,40.0,99,93,81,30.53,30.40,4,0,9,0.00
2013-12-3,44.8,42.6,40.5,42.7,40.5,38.8,99,92,85,30.41,30.21,4,1,8,0.00
2013-12-4,48.2,41.7,34.3,44.5,40.2,-25.9,99,94,75,30.41,30.18,8,2,100,0.00
2013-12-5,53.2,41.6,33.4,48.8,38.6,33.2,99,89,74,30.36,29.83,17,6,39,0.03
2013-12-6,47.8,40.8,35.2,43.1,38.8,33.9,99,93,76,30.29,30.18,10,2,23,0.00
2013-12-7,50.9,44.2,41.0,47.5,43.5,40.7,99,97,85,30.26,30.15,7,2,13,0.00
2013-12-8,51.6,46.4,40.6,50.2,45.8,40.4,99,98,92,30.18,30.10,7,3,14,0.00
2013-12-9,50.4,45.1,39.9,50.1,44.8,39.7,99,99,99,30.31,30.18,7,2,12,0.00
2013-12-10,48.2,43.2,37.0,47.2,42.5,36.8,99,97,88,30.36,30.29,8,2,13,0.00
2013-12-11,46.6,38.7,35.4,46.1,38.4,35.2,99,99,97,30.35,30.20,4,1,8,0.01
2013-12-12,50.4,44.4,35.2,50.1,44.1,35.0,99,99,99,30.20,30.05,6,2,10,0.04
2013-12-13,53.4,49.7,42.3,53.1,49.5,42.0,99,99,99,30.05,29.87,8,3,15,0.05
2013-12-14,52.3,45.7,36.0,51.9,45.0,35.7,99,97,88,30.14,29.82,17,5,29,0.06
2013-12-15,55.8,50.5,42.6,55.5,50.1,42.4,99,99,96,30.02,29.77,11,4,21,0.05
2013-12-16,56.7,51.1,43.2,56.4,50.4,37.7,99,98,76,30.07,29.71,17,4,22,0.01
2013-12-17,51.8,41.8,36.1,47.5,40.4,35.9,99,95,79,30.19,29.91,4,1,7,0.00
2013-12-18,50.2,44.9,14.9,49.9,44.7,14.7,99,99,99,29.91,29.10,12,5,27,0.20
2013-12-19,46.2,40.0,34.2,43.4,38.8,33.9,99,95,83,29.72,29.16,8,3,14,0.04
2013-12-20,50.9,42.8,33.8,49.9,41.9,33.5,99,97,91,30.00,29.72,14,6,26,0.05
2013-12-21,53.6,50.2,44.4,52.8,49.2,40.5,99,96,85,29.80,29.47,14,6,27,0.03
2013-12-22,46.9,41.2,37.0,44.5,40.3,36.8,99,97,79,29.76,29.55,9,4,21,0.12
2013-12-23,52.7,46.0,36.5,52.4,45.7,36.2,99,99,99,29.76,28.52,14,6,31,0.48
2013-12-24,52.2,43.3,38.8,51.9,41.0,35.7,99,92,78,28.80,28.53,16,6,25,0.05
2013-12-25,45.9,37.2,33.1,41.6,36.3,32.8,99,97,83,29.11,28.78,8,2,12,0.00
2013-12-26,44.6,38.4,34.5,44.3,38.2,34.3,99,99,99,29.36,28.96,12,2,21,0.03
2013-12-27,50.9,45.0,39.6,50.6,43.2,38.8,99,93,84,29.10,28.75,17,7,30,0.12
2013-12-28,45.5,38.7,33.4,43.4,38.2,33.2,99,98,87,29.63,29.09,8,3,15,0.00
2013-12-29,46.8,38.6,32.2,45.6,37.8,31.9,99,97,82,29.94,29.63,10,2,17,0.01
2013-12-30,50.5,46.2,39.4,50.3,45.8,39.1,99,98,92,29.78,29.40,16,6,25,0.17
2013-12-31,47.8,43.3,39.7,47.6,43.0,39.5,99,99,99,29.70,29.37,8,3,17,0.02
2014-1-1,50.7,45.6,40.6,50.4,45.3,35.5,99,99,99,29.41,28.84,10,4,21,66.68
2014-1-2,49.3,45.4,40.3,48.1,44.9,40.0,99,98,92,29.29,28.88,11,4,19,0.05